Weather History for Visby Flygplats, Sweden

Change the Weather History Date:

Sunday, February 23, 2014

  Actual Average Record
Temperature  
Mean Temperature 40 °F -  
Max Temperature 44 °F 37 °F - ()
Min Temperature 37 °F 26 °F - ()
Degree Days  
Heating Degree Days 24    
Moisture  
Dew Point 36 °F    
Average Humidity 82    
Maximum Humidity 93    
Minimum Humidity 65    
Precipitation  
Precipitation 0.00 in 0.04 in - ()
Sea Level Pressure  
Sea Level Pressure 30.01 in    
Wind  
Wind Speed 17 mph ()    
Max Wind Speed 25 mph    
Max Gust Speed -    
Visibility 8.0 miles    
Events      
T = Trace of Precipitation, MM = Missing Value Source: Averaged Metar Reports

Daily Weather History Graph

Daily Weather History Graph

Search for Another Location

Airport:

Trip Planner

Search our weather history database for the weather conditions in past years. The results will help you decide how hot, cold, wet, or windy it might be!

Date:

Astronomy

Feb. 23, 2014 Rise Set
Actual Time 6:57 AM CET 5:03 PM CET
Civil Twilight 6:17 AM CET 5:43 PM CET
Nautical Twilight 5:32 AM CET 6:28 PM CET
Astronomical Twilight 4:47 AM CET 7:13 PM CET
Moon 2:14 AM CET (2/23) 10:10 AM CET (2/23)
Length of Visible Light 11h 26m
Length of Day
10h 06m
Last Quarter, 42% of the Moon is Illuminated
Feb 23
Last Quarter
Mar 1
New
Mar 8
First Quarter
Mar 16
Full
Mar 24
Last Quarter

Hourly Weather History & Observations

Time (CET) Temp. Windchill Dew Point Humidity Pressure Visibility Wind Dir Wind Speed Gust Speed Precip Events Conditions
12:00 AM 39 °F - 36 °F 83% 29.88 in 11 mi SW 20.1 mph - -   Mostly Cloudy
12:20 AM 39.2 °F 29.6 °F 35.6 °F 87% 29.86 in 6.2 mi SW 19.6 mph - N/A   Overcast
12:50 AM 39.2 °F 30.2 °F 35.6 °F 87% 29.86 in 6.2 mi SW 17.3 mph - N/A   Partly Cloudy
1:00 AM 38 °F - 36 °F 88% 29.89 in 7 mi SW 17.9 mph - -  
1:20 AM 39.2 °F 30.2 °F 35.6 °F 87% 29.89 in 6.2 mi SW 17.3 mph - N/A   Partly Cloudy
1:50 AM 39.2 °F 30.2 °F 35.6 °F 87% 29.89 in 6.2 mi SW 17.3 mph - N/A   Overcast
2:00 AM 38 °F - 36 °F 88% 29.91 in 8 mi SW 15.7 mph - -   Partly Cloudy
2:20 AM 39.2 °F 30.5 °F 35.6 °F 87% 29.89 in 6.2 mi SW 16.1 mph - N/A   Partly Cloudy
2:50 AM 39.2 °F 30.2 °F 35.6 °F 87% 29.89 in 6.2 mi SW 17.3 mph - N/A   Partly Cloudy
3:00 AM 39 °F - 36 °F 84% 29.92 in 11 mi SW 15.7 mph - -   Partly Cloudy
3:20 AM 39.2 °F 30.5 °F 35.6 °F 87% 29.89 in 6.2 mi SW 16.1 mph - N/A   Scattered Clouds
3:50 AM 39.2 °F 30.8 °F 35.6 °F 87% 29.92 in 6.2 mi SW 15.0 mph - N/A   Mostly Cloudy
4:00 AM 39 °F - 36 °F 85% 29.93 in 9 mi SW 17.9 mph - -   Mostly Cloudy
4:20 AM 39.2 °F 30.5 °F 35.6 °F 87% 29.92 in 6.2 mi SW 16.1 mph - N/A   Scattered Clouds
4:50 AM 39.2 °F 30.2 °F 35.6 °F 87% 29.92 in 6.2 mi SW 17.3 mph - N/A   Overcast
5:00 AM 39 °F - 36 °F 87% 29.95 in 9 mi SW 17.9 mph - -   Overcast
5:20 AM 39.2 °F 30.2 °F 37.4 °F 93% 29.95 in 6.2 mi SW 17.3 mph - N/A   Overcast
5:50 AM 37.4 °F 28.9 °F 35.6 °F 93% 29.95 in 6.2 mi SSW 13.8 mph - N/A   Partly Cloudy
6:00 AM 39 °F - 36 °F 84% 29.97 in 9 mi SW 15.7 mph - -  
6:20 AM 39.2 °F 30.5 °F 35.6 °F 87% 29.95 in 6.2 mi SW 16.1 mph - N/A   Unknown
6:50 AM 39.2 °F 30.8 °F 35.6 °F 87% 29.98 in 6.2 mi SW 15.0 mph - N/A   Scattered Clouds
7:00 AM 39 °F - 36 °F 84% 29.99 in 9 mi SSW 15.7 mph - -   Mostly Cloudy
7:20 AM 39.2 °F 31.2 °F 35.6 °F 87% 29.98 in 6.2 mi SW 13.8 mph - N/A   Overcast
7:50 AM 41.0 °F 33.1 °F 37.4 °F 87% 29.98 in 6.2 mi SW 15.0 mph - N/A   Overcast
8:00 AM 40 °F - 36 °F 82% 30.01 in 12 mi SSW 15.7 mph - -   Mostly Cloudy
8:20 AM 42.8 °F 35.1 °F 37.4 °F 81% 30.01 in 6.2 mi SW 16.1 mph - N/A   Mostly Cloudy
8:50 AM 42.8 °F 34.8 °F 37.4 °F 81% 30.01 in 6.2 mi SW 17.3 mph - N/A   Scattered Clouds
9:00 AM 42 °F - 36 °F 74% 30.03 in 16 mi SW 17.9 mph - -   Partly Cloudy
9:20 AM 42.8 °F 34.8 °F 35.6 °F 76% 30.01 in 6.2 mi SW 17.3 mph - N/A   Partly Cloudy
9:50 AM 42.8 °F 34.8 °F 35.6 °F 76% 30.01 in 6.2 mi SW 17.3 mph - N/A   Mostly Cloudy
10:00 AM 42 °F - 36 °F 72% 30.04 in 16 mi SW 17.9 mph - -   Overcast
10:20 AM 42.8 °F 35.1 °F 37.4 °F 81% 30.04 in 6.2 mi SW 16.1 mph - N/A   Mostly Cloudy
10:50 AM 44.6 °F 37.2 °F 37.4 °F 76% 30.04 in 6.2 mi SW 17.3 mph - N/A   Mostly Cloudy
11:00 AM 43 °F - 36 °F 70% 30.05 in 16 mi SW 17.9 mph - -   Mostly Cloudy
11:20 AM 44.6 °F 37.2 °F 37.4 °F 76% 30.04 in 6.2 mi SW 17.3 mph - N/A   Partly Cloudy
11:50 AM 44.6 °F 36.4 °F 35.6 °F 71% 30.04 in 6.2 mi SSW 20.7 mph - N/A   Partly Cloudy
12:00 PM 44 °F - 36 °F 65% 30.05 in 15 mi SW 20.1 mph - -  
12:20 PM 44.6 °F 36.6 °F 37.4 °F 76% 30.04 in 6.2 mi SSW 19.6 mph - N/A   Partly Cloudy
12:50 PM 42.8 °F 34.0 °F 35.6 °F 76% 30.04 in 6.2 mi SSW 20.7 mph - N/A   Partly Cloudy
1:00 PM 43 °F - 36 °F 69% 30.04 in 13 mi SSW 22.4 mph - -   Scattered Clouds
1:20 PM 42.8 °F 33.3 °F 37.4 °F 81% 30.04 in 6.2 mi SSW 24.2 mph - N/A   Partly Cloudy
1:50 PM 42.8 °F 33.5 °F 35.6 °F 76% 30.04 in 6.2 mi SSW 23.0 mph - N/A   Partly Cloudy
2:00 PM 42 °F - 37 °F 75% 30.04 in 9 mi SSW 22.4 mph - -  
2:20 PM 42.8 °F 33.8 °F 37.4 °F 81% 30.04 in - SSW 21.9 mph - N/A   Clear
2:50 PM 42.8 °F 33.8 °F 37.4 °F 81% 30.04 in - SSW 21.9 mph - N/A   Clear
3:00 PM 42 °F - 37 °F 75% 30.04 in 8 mi SSW 20.1 mph - -  
3:20 PM 42.8 °F 34.3 °F 37.4 °F 81% 30.04 in - SSW 19.6 mph - N/A   Clear
3:50 PM 41.0 °F 32.5 °F 37.4 °F 87% 30.04 in - South 17.3 mph - N/A   Clear
4:00 PM 41 °F - 37 °F 81% 30.04 in 6 mi SSW 17.9 mph - -  
4:20 PM 41.0 °F 32.2 °F 37.4 °F 87% 30.04 in - SSW 18.4 mph - N/A   Clear
4:50 PM 41.0 °F 31.9 °F 37.4 °F 87% 30.04 in - SSW 19.6 mph - N/A   Clear
5:00 PM 40 °F - 37 °F 83% 30.05 in 6 mi SSW 20.1 mph - -  
5:20 PM 39.2 °F 29.6 °F 37.4 °F 93% 30.04 in - SSW 19.6 mph - N/A   Clear
5:50 PM 39.2 °F 29.3 °F 37.4 °F 93% 30.04 in - SSW 20.7 mph - N/A   Clear
6:00 PM 39 °F - 36 °F 86% 30.06 in 6 mi SSW 17.9 mph - -  
6:20 PM 39.2 °F 29.8 °F 37.4 °F 93% 30.04 in - SSW 18.4 mph - N/A   Clear
6:50 PM 39.2 °F 29.6 °F 37.4 °F 93% 30.06 in - SSW 19.6 mph - N/A   Clear
7:00 PM 40 °F - 36 °F 82% 30.08 in 8 mi SSW 20.1 mph - -   Scattered Clouds
7:20 PM 39.2 °F 29.6 °F 35.6 °F 87% 30.06 in - SSW 19.6 mph - N/A   Clear
7:50 PM 39.2 °F 29.0 °F 35.6 °F 87% 30.06 in - SSW 21.9 mph - N/A   Clear
8:00 PM 39 °F - 36 °F 85% 30.09 in 8 mi SSW 20.1 mph - -   Scattered Clouds
8:20 PM 39.2 °F 28.7 °F 35.6 °F 87% 30.06 in - SSW 23.0 mph - N/A   Clear
8:50 PM 39.2 °F 28.7 °F 35.6 °F 87% 30.06 in - SSW 23.0 mph - N/A   Clear
9:00 PM 40 °F - 35 °F 77% 30.09 in 11 mi SSW 22.4 mph - -  
9:20 PM 41.0 °F 30.9 °F 35.6 °F 81% 30.06 in 6.2 mi SSW 24.2 mph - N/A   Unknown
9:50 PM 41.0 °F 30.7 °F 35.6 °F 81% 30.09 in 6.2 mi SSW 25.3 mph - N/A   Unknown
10:00 PM 41 °F - 35 °F 71% 30.10 in 11 mi SSW 22.4 mph - -  
10:20 PM 41.0 °F 31.1 °F 33.8 °F 76% 30.09 in 6.2 mi SSW 23.0 mph - N/A   Unknown
10:50 PM 41.0 °F 31.1 °F 33.8 °F 76% 30.09 in 6.2 mi SSW 23.0 mph - N/A   Unknown
11:00 PM 41 °F - 34 °F 68% 30.11 in 19 mi SSW 24.6 mph - -  
11:20 PM 41.0 °F 30.9 °F 33.8 °F 76% 30.09 in 6.2 mi SSW 24.2 mph - N/A   Unknown
11:50 PM 41.0 °F 30.9 °F 33.8 °F 76% 30.09 in 6.2 mi SSW 24.2 mph - N/A   Unknown